Flag for Germany Weather past 2 weeks in Fellbach, Baden-Württemberg, Germany

Now
59 °F

Sunny.


Feels Like: 58 °F
Forecast: 48 / 68 °F
Wind: 7 mph from Northeast

Location: Stuttgart-Echterdingen


UV Index: 3 (Moderate)

Visibility: 10 mi


Pressure: 29.86 "Hg

Humidity: 68%

Dew point: 48 °F

Location of FellbachLocation

Historic Weather in Fellbach

°F

Fellbach temperature yesterday

Maximum temperature yesterday: 73 °F (at 4:20 PM)
Minimum temperature yesterday: 41 °F (at 6:20 AM)
Average temperature yesterday: 58 °F

Past Weeks' High & Low Weather Summary

 TemperatureHumidityPressure
High73 °F (Apr 24, 4:20 PM)100% (Apr 19, 3:50 AM)30.36 "Hg (Apr 19, 3:50 AM)
Low32 °F (Apr 16, 6:20 AM)21% (Apr 17, 5:20 PM)29.62 "Hg (Apr 21, 10:50 AM)
Average51 °F65%30.00 "Hg
* Reported Apr 10 8:20 AM — Apr 25 8:50 AM, Fellbach, Weather by CustomWeather, © 2014

Note: Actual official high and low records may vary slightly from our data, if they occured in-between our weather recording intervals... More about our weather records

Advertising

Historic Weather Conditions — Data for Previous 24 hours

 ConditionsComfort  
Time TempWeatherWind HumidityBarometerVisibility
8:50 AM
Apr 25
59 °FSunny.6 mph68%29.86 "Hg10 mi
8:20 AM57 °FSunny.5 mph67%29.86 "Hg10 mi
7:50 AM55 °FSunny.6 mph77%29.86 "Hg10 mi
7:20 AM54 °FSunny.3 mph72%29.86 "Hg10 mi
6:50 AM50 °FClear.No wind76%29.86 "Hg10 mi
6:20 AM50 °FClear.1 mph76%29.86 "Hg10 mi
5:50 AM52 °FClear.2 mph72%29.86 "Hg10 mi
5:20 AM52 °FClear.2 mph72%29.86 "Hg10 mi
4:50 AM52 °FClear.No wind72%29.86 "Hg10 mi
4:20 AM52 °FClear.5 mph72%29.86 "Hg10 mi
3:50 AM52 °FClear.1 mph72%29.86 "Hg10 mi
3:20 AM54 °FClear.2 mph67%29.89 "Hg10 mi
2:50 AM52 °FClear.3 mph72%29.89 "Hg10 mi
2:20 AM52 °FClear.3 mph77%29.89 "Hg10 mi
1:20 AM54 °FClear.2 mph67%29.92 "Hg10 mi
12:50 AM54 °FClear.2 mph67%29.92 "Hg10 mi
12:20 AM55 °FClear.1 mph63%29.92 "Hg10 mi
11:50 PM
Apr 24
55 °FClear.2 mph63%29.92 "Hg10 mi
11:20 PM55 °FClear.5 mph63%29.92 "Hg10 mi
10:50 PM57 °FClear.1 mph59%29.95 "Hg10 mi
10:20 PM59 °FClear.7 mph59%29.95 "Hg10 mi
9:50 PM59 °FClear.7 mph55%29.95 "Hg10 mi
9:20 PM61 °FSunny.6 mph52%29.95 "Hg10 mi
8:50 PM63 °FSunny.10 mph52%29.95 "Hg10 mi
8:20 PM64 °FSunny.10 mph49%29.95 "Hg10 mi
7:50 PM66 °FSunny.12 mph46%29.95 "Hg10 mi
7:20 PM70 °FSunny.12 mph35%29.95 "Hg10 mi
6:50 PM72 °FSunny.9 mph31%29.95 "Hg10 mi
6:20 PM72 °FSunny.9 mph27%29.95 "Hg10 mi
5:50 PM73 °FPassing clouds.7 mph29%29.95 "HgN/A
5:20 PM72 °FSunny.10 mph31%29.95 "Hg10 mi
4:50 PM72 °FSunny.12 mph31%29.98 "Hg10 mi
4:20 PM73 °FPassing clouds.6 mph31%29.98 "HgN/A
3:50 PM70 °FSunny.9 mph35%29.98 "Hg10 mi
3:20 PM72 °FPassing clouds.8 mph31%30.01 "HgN/A
2:50 PM72 °FSunny.9 mph31%30.01 "Hg10 mi
2:20 PM72 °FSunny.6 mph29%30.04 "Hg10 mi
1:50 PM70 °FSunny.6 mph35%30.04 "Hg10 mi
1:20 PM70 °FSunny.8 mph40%30.04 "Hg10 mi
12:50 PM68 °FPassing clouds.7 mph46%30.07 "HgN/A
12:20 PM66 °FPassing clouds.6 mph52%30.07 "HgN/A
11:50 AM64 °FPassing clouds.6 mph52%30.07 "HgN/A
11:20 AM63 °FPassing clouds.5 mph59%30.09 "HgN/A
10:50 AM61 °FSunny.3 mph63%30.09 "Hg10 mi
10:20 AM59 °FSunny.3 mph72%30.09 "Hg10 mi
9:50 AM57 °FSunny.2 mph72%30.09 "Hg10 mi
9:20 AM54 °FSunny.3 mph77%30.09 "Hg10 mi
Weather by CustomWeather, © 2014

See weather overview